Showing default

HONGYAN 1, 43914

Orbit data source: Space-Track

HONGYAN 1, 43914 is a payload satellite owned by Yidong Tongxin (CN) in LEO that was launched on Sat, 29 Dec 2018 UTC via a CHANG ZHENG 2D/YZ-3 launch vehicle from the Jiuquan Satellite Launch Center, China (JSC). Payload-class satellites include a variety of spacecraft equipped with specific instruments for various scientific and technological missions. These include communications satellites like Starlink; space stations such as the ISS; scientific satellites like the Hubble; Earth observation satellites from companies like Planet Labs, Umbra, and HawkEye 360; GPS; miniature CubeSats for education and research; and military/defense satellites.

Loading next visibility...
Identifier
43914, 2018-112F
Orbit
LEO
Country
Flag of CNCN / PRC
Related business
Manufacturer
DFH Shenzhen
Mission
Operational Commercial Communications
Bus & Motor
HONGYAN, Unknown motor
Mass
~500 kg wet, ~500 kg dry
Launch date (UTC)
2018-12-29 (7 years ago)
Launch vehicle
CHANG ZHENG 2D/YZ-3
Launch site
Jiuquan Satellite Launch Center, China (JSC)
Object type
Payload
Rocket body
Debris
Shape & HBR
Box + 2 Pan, 2.5 m
Radar Cross Section
3.085 m², Medium (>0.1 m² and < 1m²)

Expand to show TLE details & history
Last TLE update: 15 hours ago

TLE from 15 hours ago
0 HONGYAN 1
1 43914U 18112F   26124.73328147 -.00000115  00000-0  24749-4 0  9992
2 43914  50.0095  36.8382 0006603 124.5583 235.5919 13.43818339360696
Epoch: 2026-05-04T17:35Z
TLE epoch observation values (Epoch: 2026-05-04T17:35:55.519Z)
Latitude
-0.00007°
Longitude
-89.76143°
Altitude
1,098.39 km
Speed
7.303 km/s
True Right ascension
02h 27m 21s
True Declination
0° 00' 00"
Sunlit
Object was in daylight at epoch
Visualization orbit readout
Latitude
Unknown
Longitude
Unknown
Altitude
Unknown
Speed
Unknown
Apparent Right ascension
Unknown
Apparent Declination
Unknown
Sunlit
N/A
Visualization observer readout
Local Sidereal Time
16:32:57
Azimuth
Unknown
Elevation
Unknown
Doppler factor
Unknown
Orbital elements
Apogee altitude
1,100.733 km
Perigee altitude
1,090.863 km
Semi-major axis
7,473.935 km
Eccentricity
0.00066
Inclination
50.0095°
RAAN
36.8382°
Arg. of periapsis
124.5583°
True anomaly
235.5295°
Mean anomaly
235.5919°
Eccentric anomaly
235.5607°
Mean motion
3.35907 °/min
Orbital period
107.17 mins
BSTAR
0.000024749
Loading maneuver chart data...
Computing Atmospheric mass density...
Loading historical data...
Loading historical data...
Loading historical data...
Loading historical data...
Loading historical data...
Loading historical data...
Loading historical data...

Documentation

Showing up to 5 results
|